Weather History for Cape Girardeau, MO

Change the Weather History Date:

Sunday, November 11, 2012

  Actual Average Record
Temperature  
Mean Temperature 62 °F 49 °F  
Max Temperature 72 °F 60 °F 77 °F (2010)
Min Temperature 51 °F 38 °F 18 °F (1960)
Degree Days  
Heating Degree Days 3 16  
Month to date heating degree days 170 158  
Since 1 July heating degree days 515 461  
Cooling Degree Days 0 0  
Month to date cooling degree days 0 0  
Year to date cooling degree days 1784 1451  
Growing Degree Days 11 (Base 50)    
Moisture  
Dew Point 52 °F    
Average Humidity 75    
Maximum Humidity 96    
Minimum Humidity 53    
Precipitation  
Precipitation 0.86 in 0.14 in 1.28 in (2004)
Month to date precipitation 0.87 1.48  
Year to date precipitation 24.83 39.60  
Sea Level Pressure  
Sea Level Pressure 30.00 in    
Wind  
Wind Speed 16 mph (SSW)    
Max Wind Speed 30 mph    
Max Gust Speed 39 mph    
Visibility 7 miles    
Events Rain    
T = Trace of Precipitation, MM = Missing Value Source: NWS Daily Summary

Daily Weather History Graph

Daily Weather History Graph

Search for Another Location

Airport:

Trip Planner

Search our weather history database for the weather conditions in past years. The results will help you decide how hot, cold, wet, or windy it might be!

Date:

Astronomy

Nov. 11, 2012 Rise Set
Actual Time 6:33 AM CST 4:50 PM CST
Civil Twilight 6:06 AM CST 5:18 PM CST
Nautical Twilight 5:34 AM CST 5:49 PM CST
Astronomical Twilight 5:04 AM CST 6:20 PM CST
Moon 3:50 AM CST (11/11) 3:12 PM CST (11/11)
Length of Visible Light 11h 12m
Length of Day
10h 17m
Waning Crescent, 7% of the Moon is Illuminated
Nov 11
Waning Crescent
Nov 13
New
Nov 20
First Quarter
Nov 28
Full
Dec 6
Last Quarter

Hourly Weather History & Observations

Time (CST) Temp. Dew Point Humidity Pressure Visibility Wind Dir Wind Speed Gust Speed Precip Events Conditions
12:53 AM 60.1 °F 48.0 °F 64% 30.05 in 10.0 mi South 15.0 mph - N/A   Clear
1:53 AM 60.1 °F 48.0 °F 64% 30.04 in 10.0 mi South 13.8 mph - N/A   Clear
2:53 AM 61.0 °F 48.0 °F 62% 30.04 in 10.0 mi South 19.6 mph 27.6 mph N/A   Mostly Cloudy
3:53 AM 60.1 °F 48.9 °F 67% 30.04 in 10.0 mi South 17.3 mph - N/A   Mostly Cloudy
4:53 AM 59.0 °F 48.2 °F 67% 30.04 in 10.0 mi South 13.8 mph - N/A   Overcast
5:53 AM 59.0 °F 50.0 °F 72% 30.04 in 10.0 mi South 12.7 mph 20.7 mph N/A   Mostly Cloudy
6:53 AM 59.0 °F 48.2 °F 67% 30.05 in 10.0 mi South 15.0 mph 23.0 mph N/A   Overcast
7:53 AM 60.8 °F 50.0 °F 68% 30.07 in 10.0 mi South 15.0 mph - N/A   Overcast
8:53 AM 63.0 °F 51.1 °F 65% 30.06 in 10.0 mi South 17.3 mph 25.3 mph N/A   Partly Cloudy
10:53 AM 66.0 °F 55.0 °F 68% 30.04 in 10.0 mi South 18.4 mph 26.5 mph N/A   Overcast
12:53 PM 68.0 °F 55.0 °F 63% 29.96 in 10.0 mi South 16.1 mph 27.6 mph N/A   Overcast
1:53 PM 70.0 °F 55.0 °F 59% 29.92 in 10.0 mi South 20.7 mph 28.8 mph N/A   Clear
2:53 PM 71.1 °F 54.0 °F 55% 29.89 in 10.0 mi SSE 27.6 mph 38.0 mph N/A   Overcast
3:53 PM 70.0 °F 53.1 °F 55% 29.91 in 10.0 mi South 19.6 mph 31.1 mph N/A   Overcast
4:53 PM 66.0 °F 55.0 °F 68% 29.90 in 10.0 mi South 16.1 mph 24.2 mph 0.00 in   Overcast
5:53 PM 68.0 °F 53.1 °F 59% 29.91 in 10.0 mi South 20.7 mph 28.8 mph N/A   Overcast
6:53 PM 64.0 °F 57.0 °F 78% 29.96 in 4.0 mi SSW 13.8 mph 23.0 mph 0.02 in Rain Rain
7:53 PM 62.1 °F 59.0 °F 90% 29.95 in 4.0 mi South 15.0 mph - 0.21 in Rain Rain
8:22 PM 62.6 °F 60.8 °F 94% 29.97 in 3.0 mi WSW 13.8 mph 24.2 mph 0.07 in Rain Heavy Rain
8:24 PM 60.8 °F 59.0 °F 94% 29.98 in 3.0 mi WNW 20.7 mph 28.8 mph 0.08 in Rain Heavy Rain
8:40 PM 53.6 °F 51.8 °F 94% 29.99 in 5.0 mi NNW 17.3 mph 26.5 mph 0.13 in Rain Rain
8:53 PM 54.0 °F 51.1 °F 90% 30.00 in 7.0 mi NW 13.8 mph - 0.15 in Rain Rain
9:20 PM 53.6 °F 51.8 °F 94% 30.02 in 5.0 mi NW 8.1 mph - 0.09 in Rain Light Rain
9:38 PM 53.6 °F 51.8 °F 94% 30.01 in 4.0 mi NNW 5.8 mph - 0.14 in Rain Rain
9:53 PM 53.1 °F 51.1 °F 93% 30.01 in 3.0 mi North 4.6 mph - 0.17 in Rain Rain
10:13 PM 53.6 °F 51.8 °F 94% 30.03 in 2.5 mi NNW 8.1 mph - 0.09 in Rain Heavy Rain
10:23 PM 53.6 °F 51.8 °F 94% 30.01 in 4.0 mi North 6.9 mph - 0.10 in Rain Light Rain
10:53 PM 52.0 °F 50.0 °F 93% 30.02 in 7.0 mi NW 8.1 mph - 0.11 in Rain Light Rain
11:11 PM 51.8 °F 50.0 °F 94% 30.04 in 2.5 mi NW 8.1 mph - 0.08 in Rain Heavy Rain
11:19 PM 51.8 °F 50.0 °F 94% 30.02 in 3.0 mi NW 8.1 mph - 0.12 in Rain Rain
11:53 PM 51.1 °F 50.0 °F 96% 30.03 in 5.0 mi WNW 5.8 mph - 0.19 in Rain Rain